Location: Erlenbrunn
(49.1717°N, 7.6142°E)
Time: 09:21:45
(UTC+00:00)

Cosmos 2322 Rocket - Pass Details

Date: 25 November 2020
Orbit: 834 x 849 km, 71.0° (Epoch: 25 January)

Event Time Altitude Azimuth Distance (km) Brightness Sun altitude
Rises 16:31:13 0° 257° (WSW) 3,407 7.5 -8.6°
Reaches altitude 10° 16:34:20 10° 274° (W) 2,473 5.8 -9.1°
Maximum altitude 16:38:28 20° 321° (NW) 1,857 4.2 -9.7°
Drops below altitude 10° 16:42:36 10° 8° (N) 2,474 4.4 -10.3°
Enters shadow 16:45:14 - 23° (NNE) 3,251 4.8 -10.8°
